Regional Weather Roundup
Issued by NWS Mt. Holly, NJ

Home | Current Version | Previous Version | Text Only | Print | Product List | Glossary On
Versions: 1 2 3 4 5 6 7 8 9 10 11 12 13 14 15 16 17 18 19 20 21 22 23 24 25 26 27 28 29 30 31 32 33 34 35 36 37 38 39 40 41 42 43 44 45 46 47 48 49 50
000
ASUS41 KPHI 041012
RWRPHI

REGIONAL WEATHER ROUNDUP
NATIONAL WEATHER SERVICE MOUNT HOLLY NJ
600 AM EDT SAT JUL 04 2015

NOTE:  "FAIR" INDICATES FEW OR NO CLOUDS BELOW 12,000 FEET WITH NO
SIGNIFICANT WEATHER AND/OR OBSTRUCTIONS TO VISIBILITY.

 * = STATION DOES NOT REPORT PRECIPITATION (E.G. RAIN, SNOW, ETC.)
        OR FOG.

NJZ015>026-041100-
SOUTHERN NEW JERSEY

CITY           SKY/WX    TMP DP  RH WIND       PRES   REMARKS
POMONA         CLOUDY    70  67  90 E7        29.90F
RIO GRANDE*    MOCLDY    72  64  78 E9        29.89S
MILLVILLE      MOCLDY    68  66  93 E5        29.89F
WRIGHTSTOWN    CLOUDY    65  65  99 NE5       29.91S
MOUNT HOLLY    CLOUDY    67  64  90 NE3       29.92S
TRENTON        CLOUDY    66  63  90 NE5       29.93S

$$
NJZ001>014-041100-
NORTHERN NEW JERSEY

CITY           SKY/WX    TMP DP  RH WIND       PRES   REMARKS
SUSSEX         CLOUDY    64  60  87 W5        29.96S
ANDOVER*         N/A     65  62  90 CALM      29.96S
MORRISTOWN     CLOUDY    68  64  88 CALM      29.96R
NEWARK         LGT RAIN  71  61  70 E5        29.94F
TETERBORO      CLOUDY    70  61  73 CALM      29.93F
CALDWELL       CLOUDY    67  63  87 CALM      29.95F
SOMERVILLE     CLOUDY    66  63  90 CALM      29.92F FOG
ALLAIRE*       CLOUDY    68  61  77 E3        29.94S
TOMS RIVER*    CLOUDY    66  64  94 CALM      29.93S

$$
PAZ043-044-047-054-055-060>062-066>071-041100-
EASTERN PENNSYLVANIA

CITY           SKY/WX    TMP DP  RH WIND       PRES   REMARKS
PHILADELPHIA   CLOUDY    70  66  87 NE6       29.92S
NORTH PHILA    CLOUDY    68  63  84 NE5       29.94S
BLUE BELL      CLOUDY    68  66  94 NE3       29.92F
DOYLESTOWN     CLOUDY    65  64  97 NE3       29.93F
QUAKERTOWN*    CLOUDY    66  64  94 E3        29.95S
POTTSTOWN      CLOUDY    67  64  90 NE5       29.93F
LANCASTER      LGT RAIN  66  64  93 CALM      29.91F
COATESVILLE    CLOUDY    66  66 100 E6        29.93S FOG
READING        CLOUDY    66  63  90 N3        29.91F
ALLENTOWN      LGT RAIN  68  64  88 NE5       29.94S
MOUNT POCONO   LGT RAIN  62  58  86 SE3       29.98
HAZLETON       LGT RAIN  61  59  94 CALM      29.99S
WILKES BARRE   LGT RAIN  63  59  87 E3        29.95F

$$
DEZALL-MDZ008-012-015-019-020-041100-
DELAWARE AND EASTERN MARYLAND

CITY           SKY/WX    TMP DP  RH WIND       PRES   REMARKS
WILMINGTON     CLOUDY    70  66  87 E9        29.91S
DOVER          PTCLDY    72  67  85 E9        29.87S
GEORGETOWN     MOCLDY    70  67  90 NE6       29.87F
EASTON         PTCLDY    70  70 100 E3        29.91S FOG
PATUXENT       CLOUDY    72  69  90 NE5       29.85S
OCEAN CITY     CLOUDY    73  69  87 E12       29.84F
WALLOPS ISLAND RAIN      73  73 100 E12       29.82F FOG
SALISBURY      CLOUDY    70  69  97 N7        29.84F FOG

$$
PAZ001-021-NYZ056-072-MDZ011-DCZ001-041100-
OTHER NEARBY LOCATIONS

CITY           SKY/WX    TMP DP  RH WIND       PRES   REMARKS
HARRISBURG     CLOUDY    67  62  84 CALM      29.90F
STATE COLLEGE  LGT RAIN  63  61  94 CALM      29.91S FOG
WILLIAMSPORT   HVY RAIN  65  63  93 SE12      29.91R FOG
BINGHAMTON     LGT RAIN  61  60  97 E3        29.96S FOG
NEW YORK CITY  CLOUDY    70  57  63 SE3       29.97F
BALTIMORE      MOCLDY    70  67  90 E3        29.89R FOG
WASHINGTON DC  CLOUDY    73  68  84 NE5       29.89R

$$



USA.gov is the U.S. government's official web portal to all federal, state and local government web resources and services.